﻿_id,日時,平均風速(m/s),平均風向,最大瞬間風速(m/s),最大風速時風向,気温(℃),湿度(%),10分間移動積算雨量(mm),1時間移動積算雨量(mm),日雨量(mm),累計雨量(mm)
1,2021-01-25T00:00:00,1.6,北北東,4,北北東,7.4,83.2,0,0,5.5,22
2,2021-01-25T00:01:00,1.5,北北東,4,北北東,7.4,83,0,0,0,22
3,2021-01-25T00:02:00,1.4,北北東,4,北北東,7.4,82.8,0,0,0,22
4,2021-01-25T00:03:00,1.3,北北東,4,北北東,7.4,82.9,0,0,0,22
5,2021-01-25T00:04:00,1.3,北北東,2.5,北北東,7.3,83,0,0,0,22
6,2021-01-25T00:05:00,1.3,北北東,2.5,北北東,7.3,83.1,0,0,0,22
7,2021-01-25T00:06:00,1.4,北北東,3,北北東,7.3,83.1,0,0,0,22
8,2021-01-25T00:07:00,1.4,北北東,3,北北東,7.4,83.2,0,0,0,22
9,2021-01-25T00:08:00,1.6,北北東,3.7,北東,7.4,82.9,0,0,0,22
10,2021-01-25T00:09:00,1.8,北北東,3.7,北東,7.4,82.7,0,0,0,22
11,2021-01-25T00:10:00,1.9,北北東,3.7,北東,7.4,82.7,0,0,0,22
12,2021-01-25T00:11:00,2,北北東,3.7,北東,7.4,82.7,0,0,0,22
13,2021-01-25T00:12:00,2.1,北北東,3.7,北東,7.4,82.7,0,0,0,22
14,2021-01-25T00:13:00,2.1,北北東,3.7,北東,7.4,82.3,0,0,0,22
15,2021-01-25T00:14:00,2.2,北北東,3.7,北東,7.4,82.2,0,0,0,22
16,2021-01-25T00:15:00,2.2,北北東,3.7,北東,7.4,82.2,0,0,0,22
17,2021-01-25T00:16:00,2.1,北東,3.7,北東,7.4,82.4,0,0,0,22
18,2021-01-25T00:17:00,2.1,北東,3.7,北東,7.4,82.5,0,0,0,22
19,2021-01-25T00:18:00,2,北東,3.3,北北東,7.4,82.5,0,0,0,22
20,2021-01-25T00:19:00,1.9,北東,3.3,北北東,7.4,82.3,0,0,0,22
21,2021-01-25T00:20:00,1.9,北東,3.3,北北東,7.4,82.2,0,0,0,22
22,2021-01-25T00:21:00,1.9,北東,3.3,北北東,7.4,82.3,0,0,0,22
23,2021-01-25T00:22:00,1.8,北東,3.1,北北東,7.4,82.4,0,0,0,22
24,2021-01-25T00:23:00,1.8,北東,3,北東,7.4,82.4,0,0,0,22
25,2021-01-25T00:24:00,1.8,北東,3,北東,7.4,82.3,0,0,0,22
26,2021-01-25T00:25:00,1.8,北東,3,北東,7.3,82.4,0,0,0,22
27,2021-01-25T00:26:00,2,北北東,3.4,北東,7.4,82.4,0,0,0,22
28,2021-01-25T00:27:00,1.9,北北東,3.4,北東,7.4,82.4,0,0,0,22
29,2021-01-25T00:28:00,1.9,北北東,3.4,北東,7.3,82.3,0,0,0,22
30,2021-01-25T00:29:00,1.9,北北東,3.4,北東,7.3,82.5,0,0,0,22
31,2021-01-25T00:30:00,1.9,北北東,3.4,北東,7.3,82.7,0,0,0,22
32,2021-01-25T00:31:00,1.8,北北東,3.4,北東,7.3,82.9,0,0,0,22
33,2021-01-25T00:32:00,1.8,北北東,3.4,北東,7.2,83.1,0,0,0,22
34,2021-01-25T00:33:00,1.7,北北東,3.4,北東,7.3,83.3,0,0,0,22
35,2021-01-25T00:34:00,1.8,北北東,4,北東,7.3,83.2,0,0,0,22
36,2021-01-25T00:35:00,1.7,北北東,4,北東,7.3,83.1,0,0,0,22
37,2021-01-25T00:36:00,1.7,北北東,4,北東,7.3,82.8,0,0,0,22
38,2021-01-25T00:37:00,1.7,北北東,4,北東,7.3,82.7,0,0,0,22
39,2021-01-25T00:38:00,1.6,北北東,4,北東,7.3,82.5,0,0,0,22
40,2021-01-25T00:39:00,1.6,北北東,4,北東,7.3,82.6,0,0,0,22
41,2021-01-25T00:40:00,1.6,北北東,4,北東,7.3,82.7,0,0,0,22
42,2021-01-25T00:41:00,1.5,北北東,4,北東,7.3,82.6,0,0,0,22
43,2021-01-25T00:42:00,1.5,北北東,4,北東,7.3,82.7,0,0,0,22
44,2021-01-25T00:43:00,1.5,北北東,4,北東,7.4,82.3,0,0,0,22
45,2021-01-25T00:44:00,1.4,北北東,3.1,北東,7.4,81.7,0,0,0,22
46,2021-01-25T00:45:00,1.5,北北東,3.1,北東,7.5,81.4,0,0,0,22
47,2021-01-25T00:46:00,1.5,北北東,3.6,北北東,7.5,81.1,0,0,0,22
48,2021-01-25T00:47:00,1.6,北北東,4,北北東,7.5,80.9,0,0,0,22
49,2021-01-25T00:48:00,1.8,北北東,4,北北東,7.5,80.9,0,0,0,22
50,2021-01-25T00:49:00,2,北北東,4.3,東北東,7.5,80.6,0,0,0,22
51,2021-01-25T00:50:00,2.1,北北東,4.3,東北東,7.5,80.4,0,0,0,22
52,2021-01-25T00:51:00,2.2,北北東,4.3,東北東,7.5,80.3,0,0,0,22
53,2021-01-25T00:52:00,2.3,北北東,4.3,東北東,7.5,80.4,0,0,0,22
54,2021-01-25T00:53:00,2.3,北北東,4.3,東北東,7.4,80.5,0,0,0,22
55,2021-01-25T00:54:00,2.3,北北東,4.3,東北東,7.4,80.7,0,0,0,22
56,2021-01-25T00:55:00,2.3,北北東,4.3,東北東,7.4,80.9,0,0,0,22
57,2021-01-25T00:56:00,2.3,北北東,4.3,東北東,7.4,81,0,0,0,22
58,2021-01-25T00:57:00,2.2,北北東,4.3,東北東,7.4,81,0,0,0,22
59,2021-01-25T00:58:00,2.3,北北東,4.3,東北東,7.4,81.1,0,0,0,22
60,2021-01-25T00:59:00,2.1,北北東,3.6,北東,7.4,80.9,0,0,0,22
61,2021-01-25T01:00:00,2.1,北北東,3.6,北東,7.4,80.7,0,0,0,22
62,2021-01-25T01:01:00,2.1,北北東,3.5,北北東,7.4,80.8,0,0,0,22
63,2021-01-25T01:02:00,2.1,北北東,3.5,北北東,7.5,80.7,0,0,0,22
64,2021-01-25T01:03:00,2.2,北北東,3.7,北東,7.5,80.5,0,0,0,22
65,2021-01-25T01:04:00,2.3,北北東,3.7,北東,7.5,80.2,0,0,0,22
66,2021-01-25T01:05:00,2.3,北東,3.7,北東,7.5,80,0,0,0,22
67,2021-01-25T01:06:00,2.2,北東,3.7,北東,7.5,80.1,0,0,0,22
68,2021-01-25T01:07:00,2.1,北北東,3.7,北東,7.5,79.9,0,0,0,22
69,2021-01-25T01:08:00,2,北北東,3.7,北東,7.5,79.9,0,0,0,22
70,2021-01-25T01:09:00,2,北北東,3.7,北東,7.5,80,0,0,0,22
71,2021-01-25T01:10:00,2,北北東,3.7,北東,7.5,79.7,0,0,0,22
72,2021-01-25T01:11:00,2,北北東,3.7,北東,7.5,79.8,0,0,0,22
73,2021-01-25T01:12:00,1.9,北北東,3.7,北東,7.5,80,0,0,0,22
74,2021-01-25T01:13:00,1.8,北北東,3.8,北北東,7.5,80.1,0,0,0,22
75,2021-01-25T01:14:00,1.9,北北東,3.8,北北東,7.5,80.1,0,0,0,22
76,2021-01-25T01:15:00,2,北北東,4,北北東,7.5,80,0,0,0,22
77,2021-01-25T01:16:00,2,北東,4,北北東,7.5,80.2,0,0,0,22
78,2021-01-25T01:17:00,2.1,北東,4,北北東,7.5,80.5,0,0,0,22
79,2021-01-25T01:18:00,2.1,北東,4,北北東,7.4,80.5,0,0,0,22
80,2021-01-25T01:19:00,2.1,北東,4,北北東,7.4,80.8,0,0,0,22
81,2021-01-25T01:20:00,2.1,北東,4,北北東,7.5,81,0,0,0,22
82,2021-01-25T01:21:00,2.1,北北東,4,北北東,7.5,80.9,0,0,0,22
83,2021-01-25T01:22:00,2.2,北北東,4,北北東,7.5,80.7,0,0,0,22
84,2021-01-25T01:23:00,2.3,北北東,4.2,北,7.5,80.4,0,0,0,22
85,2021-01-25T01:24:00,2.3,北北東,4.2,北,7.5,80.4,0,0,0,22
86,2021-01-25T01:25:00,2.3,北北東,4.2,北,7.5,80.3,0,0,0,22
87,2021-01-25T01:26:00,2.3,北北東,4.2,北,7.5,80.1,0,0,0,22
88,2021-01-25T01:27:00,2.3,北北東,4.2,北,7.5,80,0,0,0,22
89,2021-01-25T01:28:00,2.4,北北東,4.2,北,7.5,80.2,0,0,0,22
90,2021-01-25T01:29:00,2.5,北北東,4.2,北,7.5,80.3,0,0,0,22
91,2021-01-25T01:30:00,2.5,北北東,4.2,北,7.5,80.4,0,0,0,22
92,2021-01-25T01:31:00,2.5,北北東,4.2,北,7.5,80.4,0,0,0,22
93,2021-01-25T01:32:00,2.4,北北東,4.2,北,7.5,80.4,0,0,0,22
94,2021-01-25T01:33:00,2.3,北北東,3.9,北東,7.5,80.5,0,0,0,22
95,2021-01-25T01:34:00,2.3,北北東,3.9,北東,7.5,80.5,0,0,0,22
96,2021-01-25T01:35:00,2.3,北北東,3.9,北東,7.4,80.7,0,0,0,22
97,2021-01-25T01:36:00,2.3,北北東,3.9,北東,7.4,80.9,0,0,0,22
98,2021-01-25T01:37:00,2.3,北東,4.2,北北東,7.5,80.9,0,0,0,22
99,2021-01-25T01:38:00,2.2,北北東,4.2,北北東,7.5,80.8,0,0,0,22
100,2021-01-25T01:39:00,2.2,北北東,4.2,北北東,7.5,80.6,0,0,0,22
101,2021-01-25T01:40:00,2.2,北北東,4.2,北北東,7.5,80.7,0,0,0,22
102,2021-01-25T01:41:00,2.3,北北東,4.5,北東,7.5,80.7,0,0,0,22
103,2021-01-25T01:42:00,2.4,北北東,4.5,北東,7.5,80.5,0,0,0,22
104,2021-01-25T01:43:00,2.3,北東,4.5,北東,7.5,80.6,0,0,0,22
105,2021-01-25T01:44:00,2.3,北東,4.5,北東,7.5,80.6,0,0,0,22
106,2021-01-25T01:45:00,2.3,北東,4.5,北東,7.5,80.6,0,0,0,22
107,2021-01-25T01:46:00,2.3,北東,4.5,北東,7.5,80.5,0,0,0,22
108,2021-01-25T01:47:00,2.3,北東,4.5,北東,7.4,80.7,0,0,0,22
109,2021-01-25T01:48:00,2.3,北東,4.5,北東,7.4,80.9,0,0,0,22
110,2021-01-25T01:49:00,2.2,北東,4.5,北東,7.4,80.8,0,0,0,22
111,2021-01-25T01:50:00,2.2,北北東,4.5,北東,7.4,80.9,0,0,0,22
112,2021-01-25T01:51:00,2.1,北北東,3.8,北東,7.4,81.2,0,0,0,22
113,2021-01-25T01:52:00,2.1,北北東,3.8,北東,7.4,81.2,0,0,0,22
114,2021-01-25T01:53:00,2,北北東,3.8,北東,7.4,81,0,0,0,22
115,2021-01-25T01:54:00,2,北北東,3.8,北東,7.4,80.8,0,0,0,22
116,2021-01-25T01:55:00,2.1,北北東,3.8,北東,7.4,80.8,0,0,0,22
117,2021-01-25T01:56:00,2.2,北北東,4.4,北東,7.4,80.9,0,0,0,22
118,2021-01-25T01:57:00,2.3,北北東,4.4,北東,7.4,80.8,0,0,0,22
119,2021-01-25T01:58:00,2.3,北北東,4.4,北東,7.4,80.8,0,0,0,22
120,2021-01-25T01:59:00,2.3,北北東,4.4,北東,7.4,81,0,0,0,22
121,2021-01-25T02:00:00,2.3,北北東,4.4,北東,7.4,81.1,0,0,0,22
122,2021-01-25T02:01:00,2.3,北北東,4.4,北東,7.3,81.1,0,0,0,22
123,2021-01-25T02:02:00,2.3,北北東,4.4,北東,7.4,81.2,0,0,0,22
124,2021-01-25T02:03:00,2.4,北北東,4.4,北東,7.3,81.1,0,0,0,22
125,2021-01-25T02:04:00,2.3,北北東,4.4,北東,7.3,81.2,0,0,0,22
126,2021-01-25T02:05:00,2.2,北北東,4.4,北東,7.3,81.2,0,0,0,22
127,2021-01-25T02:06:00,2.1,北北東,4.3,北北東,7.3,81.3,0,0,0,22
128,2021-01-25T02:07:00,2.1,北北東,4.3,北北東,7.4,81.5,0,0,0,22
129,2021-01-25T02:08:00,2.1,北北東,4.3,北北東,7.4,80.9,0,0,0,22
130,2021-01-25T02:09:00,2.1,北北東,4.3,北北東,7.4,80.7,0,0,0,22
131,2021-01-25T02:10:00,2.1,北北東,4.3,北北東,7.3,80.8,0,0,0,22
132,2021-01-25T02:11:00,2.1,北北東,4.3,北北東,7.3,81.2,0,0,0,22
133,2021-01-25T02:12:00,2.1,北北東,3.5,北東,7.3,81.1,0,0,0,22
134,2021-01-25T02:13:00,2.1,北北東,3.4,北北東,7.2,81.1,0,0,0,22
135,2021-01-25T02:14:00,2.2,北北東,4,北東,7.2,81.3,0,0,0,22
136,2021-01-25T02:15:00,2.3,北北東,4,北東,7.3,81.7,0,0,0,22
137,2021-01-25T02:16:00,2.3,北北東,4,北東,7.3,81.2,0,0,0,22
138,2021-01-25T02:17:00,2.2,北北東,4,北東,7.2,81.1,0,0,0,22
139,2021-01-25T02:18:00,2.1,北北東,4,北東,7.2,81.4,0,0,0,22
140,2021-01-25T02:19:00,2.1,北北東,4,北東,7.2,81.3,0,0,0,22
141,2021-01-25T02:20:00,2.1,北北東,4,北東,7.2,81.6,0,0,0,22
142,2021-01-25T02:21:00,2,北北東,4,北東,7.2,81.6,0,0,0,22
143,2021-01-25T02:22:00,2,北北東,4,北東,7.1,81.8,0,0,0,22
144,2021-01-25T02:23:00,1.9,北北東,4,北東,7.2,82.1,0,0,0,22
145,2021-01-25T02:24:00,1.9,北北東,3.7,北北東,7.2,81.9,0,0,0,22
146,2021-01-25T02:25:00,1.8,北北東,3.1,北北東,7.2,81.7,0,0,0,22
147,2021-01-25T02:26:00,1.8,北北東,3.9,北北東,7.2,81.6,0,0,0,22
148,2021-01-25T02:27:00,1.9,北北東,3.9,北北東,7.3,81.6,0,0,0,22
149,2021-01-25T02:28:00,2,北北東,3.9,北北東,7.3,81.4,0,0,0,22
150,2021-01-25T02:29:00,2,北北東,3.9,北北東,7.3,81.5,0,0,0,22
151,2021-01-25T02:30:00,2,北北東,3.9,北北東,7.3,81.5,0,0,0,22
152,2021-01-25T02:31:00,2.1,北北東,3.9,北北東,7.4,81.4,0,0,0,22
153,2021-01-25T02:32:00,2.2,北北東,3.9,北北東,7.4,80.9,0,0,0,22
154,2021-01-25T02:33:00,2.2,北北東,3.9,北北東,7.4,80.3,0,0,0,22
155,2021-01-25T02:34:00,2.2,北北東,3.9,北北東,7.3,80.2,0,0,0,22
156,2021-01-25T02:35:00,2.2,北北東,3.9,北北東,7.3,80.6,0,0,0,22
157,2021-01-25T02:36:00,2,北北東,3.6,北北東,7.3,81.1,0,0,0,22
158,2021-01-25T02:37:00,1.8,北北東,3.2,北北東,7.3,80.9,0,0,0,22
159,2021-01-25T02:38:00,1.7,北北東,3.2,北北東,7.3,80.8,0,0,0,22
160,2021-01-25T02:39:00,1.6,北北東,3.2,北北東,7.4,81.2,0,0,0,22
161,2021-01-25T02:40:00,1.5,北北東,3.2,北北東,7.5,80.7,0,0,0,22
162,2021-01-25T02:41:00,1.4,北北東,3.2,北北東,7.5,80.1,0,0,0,22
163,2021-01-25T02:42:00,1.2,北北東,3,北東,7.4,79.9,0,0,0,22
164,2021-01-25T02:43:00,1.1,北北東,3,北東,7.4,80.2,0,0,0,22
165,2021-01-25T02:44:00,1.1,北北東,3,北東,7.4,80.4,0,0,0,22
166,2021-01-25T02:45:00,1.1,北北東,3,北東,7.4,80.6,0,0,0,22
167,2021-01-25T02:46:00,1.2,北北東,3,北東,7.4,80.6,0,0,0,22
168,2021-01-25T02:47:00,1.2,北北東,3,北東,7.3,80.6,0,0,0,22
169,2021-01-25T02:48:00,1.3,北北東,2.7,北,7.5,81.3,0,0,0,22
170,2021-01-25T02:49:00,1.2,北北東,2.6,北,7.6,80.4,0,0,0,22
171,2021-01-25T02:50:00,1.3,北北東,2.6,北,7.5,79.6,0,0,0,22
172,2021-01-25T02:51:00,1.4,北北東,2.6,北,7.5,79.5,0,0,0,22
173,2021-01-25T02:52:00,1.4,北北東,2.6,北,7.5,79.6,0,0,0,22
174,2021-01-25T02:53:00,1.4,北北東,2.7,北東,7.5,79.9,0,0,0,22
175,2021-01-25T02:54:00,1.3,北北東,2.7,北東,7.5,79.9,0,0,0,22
176,2021-01-25T02:55:00,1.3,北北東,2.7,北東,7.4,79.9,0,0,0,22
177,2021-01-25T02:56:00,1.3,北北東,2.7,北東,7.5,80.3,0,0,0,22
178,2021-01-25T02:57:00,1.3,北北東,2.7,北東,7.4,80.1,0,0,0,22
179,2021-01-25T02:58:00,1.3,北北東,2.7,北東,7.3,80.3,0,0,0,22
180,2021-01-25T02:59:00,1.3,北北東,2.7,北東,7.3,80.7,0,0,0,22
181,2021-01-25T03:00:00,1.4,北北東,2.7,北東,7.3,81.1,0,0,0,22
182,2021-01-25T03:01:00,1.4,北北東,2.7,北東,7.4,81.2,0,0,0,22
183,2021-01-25T03:02:00,1.4,北北東,2.7,北東,7.5,81,0,0,0,22
184,2021-01-25T03:03:00,1.4,北北東,2.7,北北東,7.4,80.3,0,0,0,22
185,2021-01-25T03:04:00,1.5,北北東,2.7,北北東,7.4,80.3,0,0,0,22
186,2021-01-25T03:05:00,1.6,北北東,2.7,北北東,7.4,80.8,0,0,0,22
187,2021-01-25T03:06:00,1.6,北北東,2.7,北北東,7.4,81,0,0,0,22
188,2021-01-25T03:07:00,1.6,北北東,2.7,北北東,7.4,80.9,0,0,0,22
189,2021-01-25T03:08:00,1.6,北北東,2.7,北北東,7.4,81.1,0,0,0,22
190,2021-01-25T03:09:00,1.6,北北東,2.7,北北東,7.4,81.1,0,0,0,22
191,2021-01-25T03:10:00,1.5,北北東,2.6,北北東,7.5,80.7,0,0,0,22
192,2021-01-25T03:11:00,1.4,北北東,2.3,北北東,7.5,80.5,0,0,0,22
193,2021-01-25T03:12:00,1.4,北北東,2.2,北東,7.5,80.4,0,0,0,22
194,2021-01-25T03:13:00,1.3,北北東,2.2,北東,7.6,80.5,0,0,0,22
195,2021-01-25T03:14:00,1.3,北北東,2.2,北東,7.5,79.5,0,0,0,22
196,2021-01-25T03:15:00,1.2,北北東,2.2,北東,7.5,79.7,0,0,0,22
197,2021-01-25T03:16:00,1.3,北北東,2.1,北北東,7.6,80,0,0,0,22
198,2021-01-25T03:17:00,1.3,北北東,2.1,北北東,7.6,79.6,0,0,0,22
199,2021-01-25T03:18:00,1.3,北北東,2.5,北,7.5,79.6,0,0,0,22
200,2021-01-25T03:19:00,1.3,北北東,2.5,北,7.4,79.9,0,0,0,22
201,2021-01-25T03:20:00,1.3,北北東,2.5,北,7.4,80.4,0,0,0,22
202,2021-01-25T03:21:00,1.4,北北東,3,北北西,7.6,80.5,0,0,0,22
203,2021-01-25T03:22:00,1.4,北北東,3,北北西,7.6,79.5,0,0,0,22
204,2021-01-25T03:23:00,1.5,北北東,3,北北西,7.5,79.4,0,0,0,22
205,2021-01-25T03:24:00,1.4,北北東,3,北北西,7.5,79.8,0,0,0,22
206,2021-01-25T03:25:00,1.4,北北東,3,北北西,7.5,79.6,0,0,0,22
207,2021-01-25T03:26:00,1.4,北北東,3,北北西,7.5,79.6,0,0,0,22
208,2021-01-25T03:27:00,1.5,北北東,3,北北西,7.4,80,0,0,0,22
209,2021-01-25T03:28:00,1.5,北北東,3,北北西,7.4,80.3,0,0,0,22
210,2021-01-25T03:29:00,1.4,北北東,3,北北西,7.4,80.6,0,0,0,22
211,2021-01-25T03:30:00,1.4,北,3,北北西,7.3,81,0,0,0,22
212,2021-01-25T03:31:00,1.4,北北東,2.4,北北東,7.3,81.3,0,0,0,22
213,2021-01-25T03:32:00,1.4,北北東,2.4,北北東,7.3,81.7,0,0,0,22
214,2021-01-25T03:33:00,1.5,北北東,3.2,北北東,7.4,81.7,0,0,0,22
215,2021-01-25T03:34:00,1.6,北北東,3.2,北北東,7.4,81.4,0,0,0,22
216,2021-01-25T03:35:00,1.7,北北東,3.2,北北東,7.5,80.6,0,0,0,22
217,2021-01-25T03:36:00,1.7,北北東,3.2,北北東,7.5,80.1,0,0,0,22
218,2021-01-25T03:37:00,1.7,北北東,3.2,北北東,7.4,80,0,0,0,22
219,2021-01-25T03:38:00,1.7,北北東,3.2,北北東,7.5,80,0,0,0,22
220,2021-01-25T03:39:00,1.7,北北東,3.2,北北東,7.6,79.3,0,0,0,22
221,2021-01-25T03:40:00,1.7,北北東,3.2,北北東,7.5,78.9,0,0,0,22
222,2021-01-25T03:41:00,1.7,北北東,3.2,北北東,7.5,78.9,0,0,0,22
223,2021-01-25T03:42:00,1.6,北北東,3.2,北北東,7.4,79.1,0,0,0,22
224,2021-01-25T03:43:00,1.5,北北東,3.1,北北東,7.5,79.4,0,0,0,22
225,2021-01-25T03:44:00,1.4,北北東,3.1,北北東,7.4,79.5,0,0,0,22
226,2021-01-25T03:45:00,1.4,北北東,3.1,北北東,7.4,79.8,0,0,0,22
227,2021-01-25T03:46:00,1.3,北,3.1,北北東,7.4,79.8,0,0,0,22
228,2021-01-25T03:47:00,1.4,北,3.1,北北東,7.7,79,0,0,0,22
229,2021-01-25T03:48:00,1.4,北,2.5,北,7.7,76.7,0,0,0,22
230,2021-01-25T03:49:00,1.4,北,2.5,北,7.6,76.5,0,0,0,22
231,2021-01-25T03:50:00,1.4,北,2.7,北北東,7.6,77,0,0,0,22
232,2021-01-25T03:51:00,1.4,北,2.7,北北東,7.5,77.3,0,0,0,22
233,2021-01-25T03:52:00,1.4,北,3.5,北北東,7.5,77.9,0,0,0,22
234,2021-01-25T03:53:00,1.5,北,3.5,北北東,7.6,77.9,0,0,0,22
235,2021-01-25T03:54:00,1.5,北,3.5,北北東,7.6,77.2,0,0,0,22
236,2021-01-25T03:55:00,1.6,北,3.5,北北東,7.6,76.8,0,0,0,22
237,2021-01-25T03:56:00,1.5,北,3.5,北北東,7.6,76.6,0,0,0,22
238,2021-01-25T03:57:00,1.6,北,3.5,北北東,7.6,76.6,0,0,0,22
239,2021-01-25T03:58:00,1.6,北,3.5,北北東,7.7,76.3,0,0,0,22
240,2021-01-25T03:59:00,1.6,北,3.5,北北東,7.8,75.1,0,0,0,22
241,2021-01-25T04:00:00,1.7,北,3.5,北北東,7.8,74.6,0,0,0,22
242,2021-01-25T04:01:00,1.8,北北東,3.5,北北東,7.7,74.7,0,0,0,22
243,2021-01-25T04:02:00,1.9,北北東,3.4,北,7.7,75.2,0,0,0,22
244,2021-01-25T04:03:00,1.8,北北東,3.4,北,7.6,75.6,0,0,0,22
245,2021-01-25T04:04:00,1.9,北北東,3.4,北,7.6,75.8,0,0,0,22
246,2021-01-25T04:05:00,1.9,北北東,3.4,北,7.6,76.1,0,0,0,22
247,2021-01-25T04:06:00,2,北北東,3.4,北,7.6,76.3,0,0,0,22
248,2021-01-25T04:07:00,2,北北東,3.4,北,7.5,76.3,0,0,0,22
249,2021-01-25T04:08:00,2,北北東,3.4,北,7.4,76.7,0,0,0,22
250,2021-01-25T04:09:00,1.9,北北東,3.4,北,7.4,77,0,0,0,22
251,2021-01-25T04:10:00,1.9,北北東,3.4,北,7.5,77.2,0,0,0,22
252,2021-01-25T04:11:00,1.9,北北東,3.4,北,7.4,77,0,0,0,22
253,2021-01-25T04:12:00,1.8,北北東,3.6,北北東,7.5,77,0,0,0,22
254,2021-01-25T04:13:00,1.9,北北東,3.6,北北東,7.6,75.8,0,0,0,22
255,2021-01-25T04:14:00,2,北北東,3.7,北北東,7.7,74.9,0,0,0,22
256,2021-01-25T04:15:00,1.9,北北東,3.7,北北東,7.6,74.8,0,0,0,22
257,2021-01-25T04:16:00,1.9,北,3.7,北北東,7.6,75,0,0,0,22
258,2021-01-25T04:17:00,1.8,北,3.7,北北東,7.5,74.9,0,0,0,22
259,2021-01-25T04:18:00,1.8,北,3.7,北北東,7.6,75.2,0,0,0,22
260,2021-01-25T04:19:00,1.9,北,3.8,北,7.6,75.2,0,0,0,22
261,2021-01-25T04:20:00,2,北,3.8,北,7.5,75,0,0,0,22
262,2021-01-25T04:21:00,2.1,北北東,4.3,北北東,7.5,75,0,0,0,22
263,2021-01-25T04:22:00,2.2,北北東,4.3,北北東,7.5,75.3,0,0,0,22
264,2021-01-25T04:23:00,2.2,北北東,4.3,北北東,7.4,75.1,0,0,0,22
265,2021-01-25T04:24:00,2.2,北北東,4.3,北北東,7.4,75.4,0,0,0,22
266,2021-01-25T04:25:00,2.3,北北東,4.3,北北東,7.5,74.9,0,0,0,22
267,2021-01-25T04:26:00,2.4,北北東,4.3,北北東,7.5,74.2,0,0,0,22
268,2021-01-25T04:27:00,2.5,北北東,4.3,北北東,7.5,73.9,0,0,0,22
269,2021-01-25T04:28:00,2.5,北北東,4.3,北北東,7.4,74.3,0,0,0,22
270,2021-01-25T04:29:00,2.3,北北東,4.3,北北東,7.3,74.8,0,0,0,22
271,2021-01-25T04:30:00,2.4,北北東,4.3,北北東,7.3,75.2,0,0,0,22
272,2021-01-25T04:31:00,2.3,北北東,4.1,北,7.3,75.2,0,0,0,22
273,2021-01-25T04:32:00,2.1,北北東,4.1,北,7.3,75.2,0,0,0,22
274,2021-01-25T04:33:00,2.1,北北東,4.1,北,7.2,75.6,0,0,0,22
275,2021-01-25T04:34:00,2.1,北北東,4.1,北,7.3,75.6,0,0,0,22
276,2021-01-25T04:35:00,2.2,北北東,4.7,北北東,7.3,75,0,0,0,22
277,2021-01-25T04:36:00,2.2,北北東,4.7,北北東,7.4,74,0,0,0,22
278,2021-01-25T04:37:00,2.2,北北東,4.7,北北東,7.5,72.7,0,0,0,22
279,2021-01-25T04:38:00,2.4,北北東,4.7,北北東,7.3,72.9,0,0,0,22
280,2021-01-25T04:39:00,2.4,北北東,4.7,北北東,7.3,73.3,0,0,0,22
281,2021-01-25T04:40:00,2.5,北北東,4.7,北北東,7.4,73.3,0,0,0,22
282,2021-01-25T04:41:00,2.6,北北東,4.7,北北東,7.4,72.8,0,0,0,22
283,2021-01-25T04:42:00,2.6,北北東,4.7,北北東,7.4,72.6,0,0,0,22
284,2021-01-25T04:43:00,2.8,北北東,4.9,北東,7.4,72.5,0,0,0,22
285,2021-01-25T04:44:00,2.8,北北東,4.9,北東,7.2,72.9,0,0,0,22
286,2021-01-25T04:45:00,2.8,北北東,4.9,北東,7.1,73.8,0,0,0,22
287,2021-01-25T04:46:00,2.9,北北東,4.9,北東,7.2,74.1,0,0,0,22
288,2021-01-25T04:47:00,2.9,北北東,4.9,北東,7.3,73.1,0,0,0,22
289,2021-01-25T04:48:00,2.8,北北東,4.9,北東,7.3,72.5,0,0,0,22
290,2021-01-25T04:49:00,2.8,北北東,4.9,北東,7.2,72.9,0,0,0,22
291,2021-01-25T04:50:00,2.8,北北東,4.9,北東,7.1,73.6,0,0,0,22
292,2021-01-25T04:51:00,2.7,北北東,4.9,北東,7,74,0,0,0,22
293,2021-01-25T04:52:00,2.7,北北東,4.9,北東,6.9,74.2,0,0,0,22
294,2021-01-25T04:53:00,2.6,北北東,4.6,北,6.9,74.5,0,0,0,22
295,2021-01-25T04:54:00,2.6,北北東,4.6,北,6.9,74.5,0,0,0,22
296,2021-01-25T04:55:00,2.5,北北東,4.6,北,6.9,74.4,0,0,0,22
297,2021-01-25T04:56:00,2.4,北北東,4.2,北北東,7,73.8,0,0,0,22
298,2021-01-25T04:57:00,2.5,北北東,4.6,北東,7,73.5,0,0,0,22
299,2021-01-25T04:58:00,2.4,北北東,4.6,北東,7.1,73.2,0,0,0,22
300,2021-01-25T04:59:00,2.4,北北東,4.6,北東,7,72.7,0,0,0,22
301,2021-01-25T05:00:00,2.4,北北東,4.6,北東,7,72.7,0,0,0,22
302,2021-01-25T05:01:00,2.4,北北東,4.6,北東,7.1,72,0,0,0,22
303,2021-01-25T05:02:00,2.4,北北東,4.6,北東,7.2,70.9,0,0,0,22
304,2021-01-25T05:03:00,2.2,北北東,4.6,北東,7.1,70.5,0,0,0,22
305,2021-01-25T05:04:00,2.1,北北東,4.6,北東,7,71.3,0,0,0,22
306,2021-01-25T05:05:00,2.2,北北東,4.6,北東,7,71.5,0,0,0,22
307,2021-01-25T05:06:00,2.2,北北東,4.6,北東,7.1,70.9,0,0,0,22
308,2021-01-25T05:07:00,2.1,北北東,4.1,北北東,7,70.6,0,0,0,22
309,2021-01-25T05:08:00,2.2,北北東,4.1,北北東,7.1,70.5,0,0,0,22
310,2021-01-25T05:09:00,2.2,北北東,4.1,北北東,7.1,70.1,0,0,0,22
311,2021-01-25T05:10:00,2.3,北北東,4.1,北北東,7.1,69.9,0,0,0,22
312,2021-01-25T05:11:00,2.4,北北東,4.1,北北東,7.1,69.6,0,0,0,22
313,2021-01-25T05:12:00,2.6,北北東,4.1,北北東,7.1,69.3,0,0,0,22
314,2021-01-25T05:13:00,2.7,北北東,4.1,北北東,7.2,68.8,0,0,0,22
315,2021-01-25T05:14:00,2.7,北北東,4.1,北北東,7.1,68.3,0,0,0,22
316,2021-01-25T05:15:00,2.5,北北東,4.1,北北東,7,69,0,0,0,22
317,2021-01-25T05:16:00,2.6,北北東,4.1,北北東,6.9,69.7,0,0,0,22
318,2021-01-25T05:17:00,2.5,北北東,4,北東,7,69.8,0,0,0,22
319,2021-01-25T05:18:00,2.4,北北東,4,北東,7,69.6,0,0,0,22
320,2021-01-25T05:19:00,2.4,北北東,4,北東,7.1,69.3,0,0,0,22
321,2021-01-25T05:20:00,2.2,北北東,4,北東,7.1,68.7,0,0,0,22
322,2021-01-25T05:21:00,2.1,北北東,4,北東,7,68.9,0,0,0,22
323,2021-01-25T05:22:00,2.1,北北東,3.6,北北東,6.9,69.6,0,0,0,22
324,2021-01-25T05:23:00,2.1,北北東,3.6,北北東,6.9,70.1,0,0,0,22
325,2021-01-25T05:24:00,2.1,北北東,3.6,北北東,6.7,70.9,0,0,0,22
326,2021-01-25T05:25:00,2.1,北北東,3.6,北北東,6.8,71.4,0,0,0,22
327,2021-01-25T05:26:00,2,北北東,3.6,北北東,6.8,71.6,0,0,0,22
328,2021-01-25T05:27:00,2,北北東,3.6,北北東,6.9,71,0,0,0,22
329,2021-01-25T05:28:00,1.9,北北東,3.6,北北東,6.9,70.5,0,0,0,22
330,2021-01-25T05:29:00,1.8,北北東,3.6,北北東,6.8,70.6,0,0,0,22
331,2021-01-25T05:30:00,1.8,北北東,3.6,北北東,7,70.5,0,0,0,22
332,2021-01-25T05:31:00,1.9,北北東,3.6,北北東,7.1,69.3,0,0,0,22
333,2021-01-25T05:32:00,1.9,北北東,4.7,北東,7,69.1,0,0,0,22
334,2021-01-25T05:33:00,1.9,北北東,4.7,北東,7,69.4,0,0,0,22
335,2021-01-25T05:34:00,2,北北東,4.7,北東,7.1,69.1,0,0,0,22
336,2021-01-25T05:35:00,2,北北東,4.7,北東,7.1,68.8,0,0,0,22
337,2021-01-25T05:36:00,2.1,北北東,4.7,北東,7.1,68.9,0,0,0,22
338,2021-01-25T05:37:00,2.2,北北東,4.7,北東,7.2,68.4,0,0,0,22
339,2021-01-25T05:38:00,2.3,北北東,4.7,北東,7.2,67.7,0,0,0,22
340,2021-01-25T05:39:00,2.4,北北東,4.7,北東,7.2,67.7,0,0,0,22
341,2021-01-25T05:40:00,2.4,北北東,4.7,北東,7.2,68.2,0,0,0,22
342,2021-01-25T05:41:00,2.4,北北東,4.7,北東,7.3,67.7,0,0,0,22
343,2021-01-25T05:42:00,2.4,北北東,4.3,北東,7.4,66.7,0,0,0,22
344,2021-01-25T05:43:00,2.3,北北東,4.3,北東,7.5,66.5,0,0,0,22
345,2021-01-25T05:44:00,2.2,北北東,4.3,北東,7.3,66.4,0,0,0,22
346,2021-01-25T05:45:00,2.2,北北東,4.3,北東,7.3,67.2,0,0,0,22
347,2021-01-25T05:46:00,2.2,北北東,4.3,北東,7.3,67.2,0,0,0,22
348,2021-01-25T05:47:00,2.1,北北東,4.3,北東,7.3,66.9,0,0,0,22
349,2021-01-25T05:48:00,2.1,北北東,4.3,北東,7.4,66.9,0,0,0,22
350,2021-01-25T05:49:00,2,北北東,4.2,北,7.3,66.7,0,0,0,22
351,2021-01-25T05:50:00,1.9,北北東,4.2,北,7.3,67.3,0,0,0,22
352,2021-01-25T05:51:00,1.8,北北東,4.1,北北東,7.2,67.5,0,0,0,22
353,2021-01-25T05:52:00,1.9,北北東,4.1,北北東,7.3,67.6,0,0,0,22
354,2021-01-25T05:53:00,2.1,北北東,4.1,北北東,7.3,67.6,0,0,0,22
355,2021-01-25T05:54:00,2.2,北北東,4.1,北北東,7.3,67.6,0,0,0,22
356,2021-01-25T05:55:00,2.2,北北東,4.1,北北東,7.3,67.6,0,0,0,22
357,2021-01-25T05:56:00,2.2,北北東,4.1,北北東,7.3,67.4,0,0,0,22
358,2021-01-25T05:57:00,2.2,北北東,4.1,北北東,7.3,67.5,0,0,0,22
359,2021-01-25T05:58:00,2.2,北北東,4.1,北北東,7.2,67.8,0,0,0,22
360,2021-01-25T05:59:00,2.3,北北東,4.1,北北東,7.1,68.5,0,0,0,22
361,2021-01-25T06:00:00,2.4,北北東,4.1,北北東,7.2,68.8,0,0,0,22
362,2021-01-25T06:01:00,2.4,北北東,4.1,北北東,7.4,67.6,0,0,0,22
363,2021-01-25T06:02:00,2.3,北北東,4.1,北北東,7.5,66.1,0,0,0,22
364,2021-01-25T06:03:00,2.2,北北東,3.9,北北東,7.4,66.4,0,0,0,22
365,2021-01-25T06:04:00,2.2,北北東,3.9,北北東,7.3,67.2,0,0,0,22
366,2021-01-25T06:05:00,2.2,北北東,3.9,北北東,7.3,67.5,0,0,0,22
367,2021-01-25T06:06:00,2.2,北北東,3.9,北北東,7.2,67.6,0,0,0,22
368,2021-01-25T06:07:00,2.3,北北東,3.9,北北東,7.2,67.7,0,0,0,22
369,2021-01-25T06:08:00,2.4,北北東,3.9,北北東,7.3,67.6,0,0,0,22
370,2021-01-25T06:09:00,2.4,北北東,3.9,北北東,7.3,67.5,0,0,0,22
371,2021-01-25T06:10:00,2.3,北北東,3.9,北北東,7.2,67.7,0,0,0,22
372,2021-01-25T06:11:00,2.2,北北東,3.7,北北東,7.1,68.3,0,0,0,22
373,2021-01-25T06:12:00,2.1,北北東,3.7,北北東,7.1,68.6,0,0,0,22
374,2021-01-25T06:13:00,2,北北東,3.7,北北東,7,69,0,0,0,22
375,2021-01-25T06:14:00,1.9,北北東,3.7,北北東,7,69.7,0,0,0,22
376,2021-01-25T06:15:00,1.7,北,3.7,北北東,6.9,70.4,0,0,0,22
377,2021-01-25T06:16:00,1.6,北,3.7,北北東,7,70.5,0,0,0,22
378,2021-01-25T06:17:00,1.5,北,3.5,北北東,7,69.6,0,0,0,22
379,2021-01-25T06:18:00,1.3,北,3.3,北,7,69.7,0,0,0,22
380,2021-01-25T06:19:00,1.3,北,3.3,北,7.1,69.8,0,0,0,22
381,2021-01-25T06:20:00,1.3,北,3.3,北,7.2,69.4,0,0,0,22
382,2021-01-25T06:21:00,1.3,北,3.6,北北東,7.2,68.8,0,0,0,22
383,2021-01-25T06:22:00,1.4,北,3.6,北北東,7.2,68.9,0,0,0,22
384,2021-01-25T06:23:00,1.4,北,3.6,北北東,7.2,68.7,0,0,0,22
385,2021-01-25T06:24:00,1.5,北,3.6,北北東,7.1,69.3,0,0,0,22
386,2021-01-25T06:25:00,1.6,北,3.6,北北東,7.1,69.6,0,0,0,22
387,2021-01-25T06:26:00,1.5,北,3.6,北北東,7,70.1,0,0,0,22
388,2021-01-25T06:27:00,1.5,北,3.6,北北東,7,70.5,0,0,0,22
389,2021-01-25T06:28:00,1.6,北,3.6,北北東,7.2,70.2,0,0,0,22
390,2021-01-25T06:29:00,1.6,北,3.6,北北東,7.2,69.5,0,0,0,22
391,2021-01-25T06:30:00,1.7,北北東,3.6,北北東,7.1,69.7,0,0,0,22
392,2021-01-25T06:31:00,1.7,北北東,3,北北東,7.2,69.9,0,0,0,22
393,2021-01-25T06:32:00,1.7,北北東,3,北北東,7.1,69.8,0,0,0,22
394,2021-01-25T06:33:00,1.7,北北東,3,北北東,7.1,70,0,0,0,22
395,2021-01-25T06:34:00,1.6,北北東,3,北北東,7.1,70.2,0,0,0,22
396,2021-01-25T06:35:00,1.6,北北東,3,北北東,7,70.4,0,0,0,22
397,2021-01-25T06:36:00,1.6,北北東,3,北北東,6.9,70.7,0,0,0,22
398,2021-01-25T06:37:00,1.6,北北東,3,北北東,6.9,71.1,0,0,0,22
399,2021-01-25T06:38:00,1.7,北北東,3.4,北北東,7,71.1,0,0,0,22
400,2021-01-25T06:39:00,1.6,北北東,3.4,北北東,7,70.8,0,0,0,22
401,2021-01-25T06:40:00,1.7,北北東,3.4,北北東,7,71,0,0,0,22
402,2021-01-25T06:41:00,1.6,北北東,3.4,北北東,7,70.8,0,0,0,22
403,2021-01-25T06:42:00,1.7,北北東,3.4,北北東,7.1,70.3,0,0,0,22
404,2021-01-25T06:43:00,1.6,北北東,3.4,北北東,7,70.2,0,0,0,22
405,2021-01-25T06:44:00,1.7,北北東,3.4,北北東,6.9,70.6,0,0,0,22
406,2021-01-25T06:45:00,1.8,北北東,3.4,北北東,6.9,70.8,0,0,0,22
407,2021-01-25T06:46:00,1.8,北北東,3.4,北北東,6.8,71.1,0,0,0,22
408,2021-01-25T06:47:00,1.8,北北東,3.4,北北東,6.7,71.5,0,0,0,22
409,2021-01-25T06:48:00,1.8,北北東,3.2,北,6.7,71.8,0,0,0,22
410,2021-01-25T06:49:00,1.9,北北東,3.6,北北東,6.8,71.9,0,0,0,22
411,2021-01-25T06:50:00,2,北北東,3.7,北北東,6.7,71.7,0,0,0,22
412,2021-01-25T06:51:00,2,北北東,3.7,北北東,6.8,71.7,0,0,0,22
413,2021-01-25T06:52:00,2,北北東,3.7,北北東,6.7,71.4,0,0,0,22
414,2021-01-25T06:53:00,2,北北東,3.7,北北東,6.6,71.8,0,0,0,22
415,2021-01-25T06:54:00,2,北北東,3.7,北北東,6.7,72.7,0,0,0,22
416,2021-01-25T06:55:00,1.9,北北東,3.7,北北東,6.8,72,0,0,0,22
417,2021-01-25T06:56:00,1.9,北北東,3.7,北北東,6.7,71.9,0,0,0,22
418,2021-01-25T06:57:00,1.9,北,3.7,北北東,6.6,72.3,0,0,0,22
419,2021-01-25T06:58:00,1.8,北,3.9,北北東,6.6,72.9,0,0,0,22
420,2021-01-25T06:59:00,1.8,北,3.9,北北東,6.7,72.9,0,0,0,22
421,2021-01-25T07:00:00,1.7,北,3.9,北北東,6.7,72.5,0,0,0,22
422,2021-01-25T07:01:00,1.7,北,3.9,北北東,6.7,72.4,0,0,0,22
423,2021-01-25T07:02:00,1.7,北,3.9,北北東,6.7,72.6,0,0,0,22
424,2021-01-25T07:03:00,1.7,北,3.9,北北東,6.8,72.4,0,0,0,22
425,2021-01-25T07:04:00,1.7,北,3.9,北北東,6.7,72.2,0,0,0,22